Location: Brienzwiler
(46.7508°N, 8.1014°E)
Time: 08:09:12
(UTC+00:00)

Cosmos 1151 Rocket - Pass Details

Date: 05 July 2020
Orbit: 591 x 617 km, 82.5° (Epoch: 05 August)

Event Time Altitude Azimuth Distance (km) Brightness Sun altitude
Rises 23:32:53 0° 344° (NNW) 2,878 7.8 -20.6°
Reaches altitude 10° 23:35:12 10° 337° (NNW) 1,965 6.6 -20.6°
Maximum altitude 23:39:16 40° 268° (W) 895 3.8 -20.6°
Enters shadow 23:40:02 36° 241° (WSW) 954 3.7 -20.6°
